• In Denmark
  • List of Countries
  • For 7 days
  • Water Temperature
  • Satellite Maps
  • Weather Map
  • Weather Widgets
  • user-avatar
    Login

    Hourly Weather Townsville

    Today, 19 August, Saturday

    Time Temperature Precipitation Wind Pressure Humidity
    00:00 +22°C° 0 mm 1 mps 755 mmHg 83%
    01:00 +22°C° 0 mm 1 mps 756 mmHg 83%
    02:00 +22°C° 0 mm 1 mps 755 mmHg 79%
    03:00 +20°C° 0 mm 2 mps 755 mmHg 75%
    04:00 +20°C° 0 mm 2 mps 755 mmHg 73%
    05:00 +20°C° 0 mm 2 mps 755 mmHg 64%
    06:00 +20°C° 0 mm 3 mps 756 mmHg 55%
    07:00 +19°C° 0 mm 3 mps 756 mmHg 46%
    08:00 +22°C° 0 mm 4 mps 756 mmHg 36%
    09:00 +26°C° 0 mm 4 mps 756 mmHg 27%
    10:00 +29°C° 0 mm 5 mps 757 mmHg 17%
    11:00 +30°C° 0 mm 5 mps 756 mmHg 16%
    12:00 +32°C° 0 mm 5 mps 756 mmHg 15%
    13:00 +34°C° 0 mm 5 mps 756 mmHg 13%
    14:00 +33°C° 0 mm 5 mps 755 mmHg 14%
    15:00 +33°C° 0 mm 6 mps 755 mmHg 14%
    16:00 +32°C° 0 mm 6 mps 755 mmHg 15%
    17:00 +28°C° 0 mm 5 mps 755 mmHg 22%
    18:00 +25°C° 0 mm 4 mps 755 mmHg 29%
    19:00 +21°C° 0 mm 4 mps 756 mmHg 36%
    20:00 +20°C° 0 mm 4 mps 756 mmHg 40%
    21:00 +19°C° 0 mm 3 mps 756 mmHg 44%
    22:00 +18°C° 0 mm 3 mps 757 mmHg 48%
    23:00 +18°C° 0 mm 3 mps 757 mmHg 49%

    Tomorrow, 20 August, Sunday

    Time Temperature Precipitation Wind Pressure Humidity
    00:00 +17°C° 0 mm 3 mps 757 mmHg 49%
    01:00 +17°C° 0 mm 3 mps 757 mmHg 49%
    02:00 +16°C° 0 mm 3 mps 757 mmHg 44%
    03:00 +16°C° 0 mm 3 mps 756 mmHg 38%
    04:00 +14°C° 0 mm 4 mps 756 mmHg 33%
    05:00 +14°C° 0 mm 4 mps 757 mmHg 32%
    06:00 +14°C° 0 mm 4 mps 757 mmHg 31%
    07:00 +13°C° 0 mm 4 mps 757 mmHg 31%
    08:00 +16°C° 0 mm 5 mps 758 mmHg 27%
    09:00 +20°C° 0 mm 5 mps 758 mmHg 24%
    10:00 +23°C° 0 mm 5 mps 758 mmHg 20%
    11:00 +25°C° 0 mm 5 mps 758 mmHg 18%
    12:00 +27°C° 0 mm 4 mps 757 mmHg 16%
    13:00 +28°C° 0 mm 4 mps 756 mmHg 14%
    14:00 +28°C° 0 mm 4 mps 756 mmHg 15%
    15:00 +28°C° 0 mm 4 mps 755 mmHg 16%
    16:00 +28°C° 0 mm 4 mps 755 mmHg 17%
    17:00 +25°C° 0 mm 4 mps 755 mmHg 30%
    18:00 +21°C° 0 mm 3 mps 756 mmHg 42%
    19:00 +18°C° 0 mm 3 mps 756 mmHg 55%
    20:00 +18°C° 0 mm 3 mps 756 mmHg 65%
    21:00 +17°C° 0 mm 3 mps 757 mmHg 74%
    22:00 +16°C° 0 mm 3 mps 757 mmHg 84%
    23:00 +15°C° 0 mm 4 mps 757 mmHg 84%

    Day after tomorrow, 21 August, Monday

    Time Temperature Precipitation Wind Pressure Humidity
    00:00 +14°C° 0 mm 4 mps 757 mmHg 83%
    01:00 +14°C° 0 mm 4 mps 757 mmHg 83%
    02:00 +14°C° 0 mm 4 mps 756 mmHg 80%
    03:00 +13°C° 0 mm 4 mps 756 mmHg 76%
    04:00 +13°C° 0 mm 4 mps 756 mmHg 73%
    05:00 +13°C° 0 mm 4 mps 757 mmHg 70%
    06:00 +13°C° 0 mm 4 mps 757 mmHg 67%
    07:00 +12°C° 0 mm 3 mps 757 mmHg 63%
    08:00 +17°C° 0 mm 4 mps 758 mmHg 57%
    09:00 +20°C° 0 mm 4 mps 758 mmHg 50%
    10:00 +23°C° 0 mm 4 mps 758 mmHg 44%
    11:00 +25°C° 0 mm 4 mps 757 mmHg 43%
    12:00 +26°C° 0 mm 4 mps 757 mmHg 41%
    13:00 +27°C° 0 mm 4 mps 756 mmHg 40%
    14:00 +27°C° 0 mm 4 mps 755 mmHg 44%
    15:00 +27°C° 0 mm 4 mps 755 mmHg 48%
    16:00 +26°C° 0 mm 3 mps 755 mmHg 51%
    17:00 +24°C° 0 mm 3 mps 755 mmHg 61%
    18:00 +21°C° 0 mm 3 mps 756 mmHg 71%
    19:00 +19°C° 0 mm 3 mps 756 mmHg 80%
    20:00 +19°C° 0 mm 2 mps 756 mmHg 84%
    21:00 +19°C° 0 mm 2 mps 757 mmHg 88%
    22:00 +18°C° 0 mm 2 mps 757 mmHg 92%
    23:00 +18°C° 0 mm 2 mps 757 mmHg 93%

    22 August, Tuesday

    Time Temperature Precipitation Wind Pressure Humidity
    00:00 +18°C° 0 mm 2 mps 757 mmHg 94%
    01:00 +18°C° 0 mm 3 mps 756 mmHg 94%
    02:00 +18°C° 0 mm 2 mps 756 mmHg 95%
    03:00 +18°C° 0 mm 2 mps 756 mmHg 95%
    04:00 +18°C° 0 mm 2 mps 756 mmHg 95%
    05:00 +18°C° 0 mm 2 mps 756 mmHg 95%
    06:00 +18°C° 0 mm 2 mps 757 mmHg 94%
    07:00 +18°C° 0 mm 2 mps 757 mmHg 94%
    08:00 +21°C° 0 mm 3 mps 757 mmHg 82%
    09:00 +24°C° 0 mm 3 mps 758 mmHg 71%
    10:00 +27°C° 0 mm 3 mps 758 mmHg 59%
    11:00 +27°C° 0 mm 3 mps 757 mmHg 57%
    12:00 +28°C° 0 mm 3 mps 756 mmHg 55%
    13:00 +28°C° 0 mm 3 mps 756 mmHg 53%
    14:00 +28°C° 0 mm 3 mps 755 mmHg 54%
    15:00 +28°C° 0 mm 3 mps 755 mmHg 55%
    16:00 +28°C° 0 mm 3 mps 755 mmHg 56%
    17:00 +26°C° 0 mm 3 mps 755 mmHg 65%
    18:00 +24°C° 0 mm 3 mps 756 mmHg 74%
    19:00 +21°C° 0 mm 3 mps 756 mmHg 83%
    20:00 +20°C° 0 mm 3 mps 757 mmHg 86%
    21:00 +20°C° 0 mm 3 mps 757 mmHg 89%
    22:00 +20°C° 0 mm 2 mps 758 mmHg 92%
    23:00 +19°C° 0 mm 2 mps 757 mmHg 93%

    23 August, Wednesday

    Time Temperature Precipitation Wind Pressure Humidity
    00:00 +19°C° 0 mm 2 mps 757 mmHg 94%
    01:00 +19°C° 0 mm 2 mps 757 mmHg 95%
    02:00 +19°C° 0 mm 2 mps 757 mmHg 94%
    03:00 +19°C° 0 mm 2 mps 756 mmHg 94%
    04:00 +19°C° 0 mm 2 mps 756 mmHg 93%
    05:00 +19°C° 0 mm 2 mps 757 mmHg 93%
    06:00 +19°C° 0 mm 2 mps 757 mmHg 93%
    07:00 +19°C° 0 mm 2 mps 758 mmHg 92%
    08:00 +23°C° 0 mm 2 mps 758 mmHg 80%
    09:00 +25°C° 0 mm 3 mps 758 mmHg 68%
    10:00 +27°C° 0 mm 3 mps 758 mmHg 56%
    11:00 +28°C° 0 mm 3 mps 757 mmHg 52%
    12:00 +29°C° 0 mm 3 mps 756 mmHg 48%
    13:00 +30°C° 0 mm 3 mps 756 mmHg 44%
    14:00 +30°C° 0 mm 3 mps 755 mmHg 46%
    15:00 +29°C° 0 mm 3 mps 755 mmHg 49%
    16:00 +28°C° 0 mm 3 mps 755 mmHg 51%
    17:00 +26°C° 0 mm 3 mps 755 mmHg 60%
    18:00 +24°C° 0 mm 3 mps 756 mmHg 70%
    19:00 +21°C° 0 mm 2 mps 756 mmHg 79%
    20:00 +21°C° 0 mm 2 mps 757 mmHg 83%
    21:00 +20°C° 0 mm 3 mps 757 mmHg 87%
    22:00 +20°C° 0 mm 3 mps 757 mmHg 91%
    23:00 +19°C° 0 mm 3 mps 757 mmHg 92%

    24 August, Thursday

    Time Temperature Precipitation Wind Pressure Humidity
    00:00 +19°C° 0 mm 3 mps 757 mmHg 94%
    01:00 +19°C° 0 mm 3 mps 756 mmHg 95%
    02:00 +19°C° 0 mm 3 mps 756 mmHg 95%
    03:00 +19°C° 0 mm 3 mps 756 mmHg 96%
    04:00 +19°C° 0 mm 3 mps 756 mmHg 96%
    05:00 +19°C° 0 mm 3 mps 756 mmHg 96%
    06:00 +19°C° 0 mm 3 mps 757 mmHg 95%
    07:00 +19°C° 0 mm 3 mps 757 mmHg 95%
    08:00 +22°C° 0 mm 3 mps 757 mmHg 81%
    09:00 +25°C° 0 mm 3 mps 757 mmHg 67%
    10:00 +28°C° 0 mm 3 mps 757 mmHg 53%
    11:00 +29°C° 0 mm 4 mps 757 mmHg 48%
    12:00 +30°C° 0 mm 4 mps 756 mmHg 43%
    13:00 +32°C° 0 mm 4 mps 755 mmHg 38%
    14:00 +30°C° 0 mm 4 mps 755 mmHg 40%
    15:00 +29°C° 0 mm 4 mps 755 mmHg 42%
    16:00 +28°C° 0 mm 4 mps 755 mmHg 45%
    17:00 +26°C° 0 mm 4 mps 755 mmHg 53%
    18:00 +23°C° 0 mm 4 mps 756 mmHg 61%
    19:00 +22°C° 0 mm 4 mps 756 mmHg 69%
    20:00 +21°C° 0 mm 4 mps 756 mmHg 74%
    21:00 +20°C° 0 mm 4 mps 757 mmHg 79%
    22:00 +20°C° 0 mm 4 mps 757 mmHg 84%
    23:00 +19°C° 0 mm 4 mps 757 mmHg 87%
    Show more